User: anonymous   Login
Location: Bear Trap Landing
(45.2437°N, 67.7928°W)
Time: 23:47:29
(UTC+00:00)
Language:

ISS - Orbit

View from above orbital plane
View from above orbital plane
View from above satellite
View from above satellite

Ground track
Ground track

The orbit data is extracted from the following two-line orbital elements,

1 25544U 98067A   21112.68911556  .00001953  00000-0  43716-4 0  9991
2 25544  51.6443 257.2279 0002659 263.0392 227.6143 15.48920130279990
Epoch (UTC): 22 April 2021 16:32:19
Eccentricity: 0.0002659
inclination: 51.6443°
perigee height: 418 km
apogee height: 421 km
right ascension of ascending node: 257.2279°
argument of perigee: 263.0392°
revolutions per day: 15.48920130
mean anomaly at epoch: 227.6143°
orbit number at epoch: 27999

The dashed part of the orbit path shows where the satellite is in the earth's shadow,  

DLR